Weather History for Eagle Creek, IN

Change the Weather History Date:

Sunday, October 13, 2013

  Actual Average Record
Temperature  
Mean Temperature 59 °F 56 °F  
Max Temperature 69 °F 65 °F 78 °F (2008)
Min Temperature 49 °F 46 °F 32 °F (2006)
Degree Days  
Heating Degree Days 6 10  
Month to date heating degree days 53 104  
Since 1 July heating degree days 106 165  
Cooling Degree Days 0 0  
Month to date cooling degree days 28 12  
Year to date cooling degree days 1006 1055  
Growing Degree Days 11 (Base 50)    
Moisture  
Dew Point 43 °F    
Average Humidity 53    
Maximum Humidity 77    
Minimum Humidity 28    
Precipitation  
Precipitation 0.00 in 0.10 in 0.79 in (2004)
Month to date precipitation 3.04 1.34  
Year to date precipitation 32.84 32.24  
Sea Level Pressure  
Sea Level Pressure 30.27 in    
Wind  
Wind Speed 7 mph (North)    
Max Wind Speed 15 mph    
Max Gust Speed 22 mph    
Visibility 10 miles    
Events Rain    
T = Trace of Precipitation, MM = Missing Value Source: NWS Daily Summary

Daily Weather History Graph

Daily Weather History Graph

Search for Another Location

Airport:

Trip Planner

Search our weather history database for the weather conditions in past years. The results will help you decide how hot, cold, wet, or windy it might be!

Date:

Astronomy

Oct. 13, 2013 Rise Set
Actual Time 7:53 AM EDT 7:08 PM EDT
Civil Twilight 7:26 AM EDT 7:35 PM EDT
Nautical Twilight 6:55 AM EDT 8:06 PM EDT
Astronomical Twilight 6:23 AM EDT 8:38 PM EDT
Moon 3:58 PM EDT (10/13) 2:03 AM EDT (10/13)
Length of Visible Light 12h 09m
Length of Day
11h 14m
Waxing Gibbous, 69% of the Moon is Illuminated
Oct 13
Waxing Gibbous
Oct 18
Full
Oct 26
Last Quarter
Nov 3
New
Nov 10
First Quarter

Hourly Weather History & Observations

Time (EDT) Temp. Dew Point Humidity Pressure Visibility Wind Dir Wind Speed Gust Speed Precip Events Conditions
12:53 AM 66.0 °F 61.0 °F 84% 30.13 in 8.0 mi NW 6.9 mph - 0.00 in Rain Light Rain
1:53 AM 64.9 °F 57.9 °F 78% 30.15 in 10.0 mi NNW 8.1 mph - 0.00 in   Overcast
2:53 AM 63.0 °F 53.1 °F 70% 30.17 in 10.0 mi NNW 6.9 mph - N/A   Overcast
3:53 AM 62.1 °F 50.0 °F 65% 30.18 in 10.0 mi North 8.1 mph - N/A   Overcast
4:53 AM 59.0 °F 48.0 °F 67% 30.20 in 10.0 mi North 9.2 mph - N/A   Clear
5:53 AM 55.9 °F 46.9 °F 72% 30.22 in 10.0 mi North 5.8 mph - N/A   Clear
6:53 AM 54.0 °F 46.9 °F 77% 30.25 in 10.0 mi North 4.6 mph - N/A   Clear
7:53 AM 53.1 °F 46.9 °F 80% 30.27 in 10.0 mi North 5.8 mph - N/A   Clear
8:53 AM 55.0 °F 46.0 °F 72% 30.28 in 10.0 mi North 8.1 mph - N/A   Clear
9:53 AM 59.0 °F 45.0 °F 60% 30.31 in 10.0 mi North 9.2 mph - N/A   Clear
10:53 AM 63.0 °F 43.0 °F 48% 30.33 in 10.0 mi North 11.5 mph - N/A   Clear
11:53 AM 64.0 °F 39.0 °F 40% 30.32 in 10.0 mi NE 9.2 mph - N/A   Clear
12:53 PM 66.0 °F 39.9 °F 38% 30.32 in 10.0 mi NNE 5.8 mph - N/A   Clear
1:53 PM 68.0 °F 39.9 °F 36% 30.30 in 10.0 mi NNE 8.1 mph - N/A   Clear
2:53 PM 69.1 °F 39.9 °F 35% 30.29 in 10.0 mi NNW 9.2 mph - N/A   Clear
3:53 PM 69.1 °F 36.0 °F 30% 30.29 in 10.0 mi North 8.1 mph - N/A   Clear
4:53 PM 69.1 °F 35.1 °F 29% 30.28 in 10.0 mi North 4.6 mph - N/A   Clear
5:53 PM 68.0 °F 36.0 °F 31% 30.28 in 10.0 mi North 6.9 mph - N/A   Clear
6:53 PM 64.0 °F 39.0 °F 40% 30.29 in 10.0 mi NNW 4.6 mph - N/A   Clear
7:53 PM 61.0 °F 39.9 °F 46% 30.30 in 10.0 mi NNW 5.8 mph - N/A   Clear
8:53 PM 55.9 °F 36.0 °F 47% 30.32 in 10.0 mi North 4.6 mph - N/A   Clear
9:53 PM 55.0 °F 39.0 °F 55% 30.33 in 10.0 mi North 8.1 mph - N/A   Clear
10:53 PM 54.0 °F 39.0 °F 57% 30.34 in 10.0 mi Variable 6.9 mph - N/A   Clear
11:53 PM 51.1 °F 39.0 °F 63% 30.36 in 10.0 mi North 5.8 mph - N/A   Clear